Wetterdaten: Woche 16.01.17 - 22.01.17 (KW3)
Datum Zeit Temp. I. Temp. A. Feuchte I. Feuchte A. Luftdruck Regen Wind Richtung Sonnenschein UV Solar Taupunkt Windchill Windben
16.01.2017 00:00 23,1 C -5,1 C 60 % 94 % 1020,6 hPa 0,2 l/m 0,0 km/h (0 Bft) N 0,00 h 0,0 UV-I 0 W/m -5,9 C -5,1 C 0,0 km/h (0 Bft)
16.01.2017 01:00 22,7 C -4,8 C 60 % 94 % 1020,5 hPa 0,0 l/m 0,0 km/h (0 Bft) N 0,00 h 0,0 UV-I 0 W/m -5,6 C -4,8 C 0,0 km/h (0 Bft)
16.01.2017 02:00 22,5 C -4,7 C 60 % 95 % 1020,7 hPa 0,0 l/m 0,0 km/h (0 Bft) N 0,00 h 0,0 UV-I 0 W/m -5,3 C -4,7 C 0,0 km/h (0 Bft)
16.01.2017 03:00 22,4 C -4,4 C 60 % 95 % 1021,0 hPa 0,0 l/m 0,9 km/h (0 Bft) N 0,00 h 0,0 UV-I 0 W/m -5,1 C -4,4 C 2,1 km/h (1 Bft)
16.01.2017 04:00 22,3 C -4,3 C 60 % 95 % 1021,2 hPa 0,0 l/m 1,8 km/h (1 Bft) N 0,00 h 0,0 UV-I 0 W/m -5,0 C -4,3 C 3,4 km/h (1 Bft)
16.01.2017 05:00 22,2 C -4,6 C 60 % 94 % 1021,4 hPa 0,2 l/m 1,4 km/h (1 Bft) N 0,00 h 0,0 UV-I 0 W/m -5,4 C -4,6 C 3,0 km/h (1 Bft)
16.01.2017 06:00 22,2 C -4,3 C 60 % 95 % 1021,6 hPa 0,2 l/m 1,3 km/h (1 Bft) N 0,00 h 0,0 UV-I 0 W/m -5,0 C -4,3 C 3,0 km/h (1 Bft)
16.01.2017 07:00 22,3 C -4,2 C 61 % 95 % 1022,1 hPa 0,0 l/m 1,4 km/h (1 Bft) N 0,00 h 0,0 UV-I 0 W/m -4,9 C -4,2 C 2,8 km/h (1 Bft)
16.01.2017 08:00 22,5 C -4,1 C 62 % 95 % 1022,6 hPa 0,0 l/m 1,0 km/h (0 Bft) N-NW 0,00 h 0,0 UV-I 15 W/m -4,8 C -4,1 C 2,7 km/h (1 Bft)
16.01.2017 09:00 22,6 C -3,3 C 62 % 95 % 1023,2 hPa 0,0 l/m 2,8 km/h (1 Bft) N 0,00 h 0,0 UV-I 62 W/m -4,0 C -3,5 C 5,6 km/h (1 Bft)
16.01.2017 10:00 22,6 C -2,2 C 62 % 90 % 1023,6 hPa 0,0 l/m 3,6 km/h (1 Bft) N 0,00 h 0,0 UV-I 62 W/m -3,6 C -2,5 C 7,1 km/h (2 Bft)
16.01.2017 11:00 22,8 C -2,2 C 60 % 89 % 1023,8 hPa 0,0 l/m 3,9 km/h (1 Bft) N 0,00 h 0,0 UV-I 47 W/m -3,9 C -2,4 C 7,1 km/h (2 Bft)
16.01.2017 12:00 22,8 C -1,7 C 57 % 87 % 1023,8 hPa 0,0 l/m 1,3 km/h (1 Bft) N 0,00 h 0,0 UV-I 69 W/m -3,6 C -1,7 C 3,3 km/h (1 Bft)
16.01.2017 13:00 22,7 C -1,4 C 55 % 85 % 1023,9 hPa 0,0 l/m 4,1 km/h (1 Bft) N 0,00 h 0,0 UV-I 56 W/m -3,6 C -1,6 C 7,6 km/h (2 Bft)
16.01.2017 14:00 22,7 C -1,2 C 53 % 85 % 1024,1 hPa 0,0 l/m 2,6 km/h (1 Bft) N 0,00 h 0,0 UV-I 69 W/m -3,4 C -1,3 C 5,1 km/h (1 Bft)
16.01.2017 15:00 22,8 C -1,7 C 51 % 85 % 1024,6 hPa 0,0 l/m 2,2 km/h (1 Bft) N 0,00 h 0,0 UV-I 37 W/m -3,8 C -1,7 C 4,8 km/h (1 Bft)
16.01.2017 16:00 22,7 C -2,4 C 52 % 88 % 1025,2 hPa 0,0 l/m 4,1 km/h (1 Bft) N 0,00 h 0,0 UV-I 10 W/m -4,2 C -2,9 C 6,7 km/h (2 Bft)
16.01.2017 17:00 22,6 C -3,2 C 53 % 90 % 1025,7 hPa 0,0 l/m 7,3 km/h (2 Bft) N 0,00 h 0,0 UV-I 0 W/m -4,7 C -5,1 C 12,1 km/h (2 Bft)
16.01.2017 18:00 22,8 C -3,7 C 55 % 90 % 1026,7 hPa 0,0 l/m 11,1 km/h (2 Bft) N 0,00 h 0,0 UV-I 0 W/m -5,0 C -8,4 C 17,2 km/h (3 Bft)
16.01.2017 19:00 22,8 C -4,5 C 56 % 90 % 1027,7 hPa 0,0 l/m 5,6 km/h (1 Bft) N 0,00 h 0,0 UV-I 0 W/m -5,9 C -5,3 C 9,8 km/h (2 Bft)
16.01.2017 20:00 22,9 C -5,5 C 58 % 88 % 1028,3 hPa 0,2 l/m 3,3 km/h (1 Bft) N 0,00 h 0,0 UV-I 0 W/m -7,1 C -5,5 C 6,1 km/h (2 Bft)
16.01.2017 21:00 23,3 C -7,2 C 59 % 87 % 1029,0 hPa 0,0 l/m 3,7 km/h (1 Bft) N 0,00 h 0,0 UV-I 0 W/m -8,9 C -7,2 C 5,8 km/h (2 Bft)
16.01.2017 22:00 23,3 C -8,3 C 59 % 89 % 1029,4 hPa 0,0 l/m 1,0 km/h (0 Bft) N-NW 0,00 h 0,0 UV-I 0 W/m -9,8 C -8,3 C 2,2 km/h (1 Bft)
16.01.2017 23:00 23,0 C -8,2 C 59 % 92 % 1029,6 hPa 0,0 l/m 2,4 km/h (1 Bft) N 0,00 h 0,0 UV-I 0 W/m -9,4 C -8,2 C 5,0 km/h (1 Bft)
17.01.2017 00:00 22,7 C -7,6 C 59 % 92 % 1030,0 hPa 0,0 l/m 0,9 km/h (0 Bft) N-NO 0,00 h 0,0 UV-I 0 W/m -8,6 C -7,6 C 2,2 km/h (1 Bft)
17.01.2017 01:00 22,4 C -8,9 C 59 % 90 % 1030,7 hPa 0,0 l/m 0,5 km/h (0 Bft) NO 0,00 h 0,0 UV-I 0 W/m -10,2 C -8,9 C 1,2 km/h (1 Bft)
17.01.2017 02:00 22,3 C -9,8 C 59 % 91 % 1031,2 hPa 0,0 l/m 0,2 km/h (0 Bft) O 0,00 h 0,0 UV-I 0 W/m -11,0 C -9,8 C 1,0 km/h (0 Bft)
17.01.2017 03:00 22,2 C -9,5 C 59 % 92 % 1031,4 hPa 0,0 l/m 0,3 km/h (0 Bft) N-NW 0,00 h 0,0 UV-I 0 W/m -10,5 C -9,5 C 0,9 km/h (0 Bft)
17.01.2017 04:00 22,1 C -9,2 C 59 % 92 % 1031,9 hPa 0,0 l/m 0,5 km/h (0 Bft) N 0,00 h 0,0 UV-I 0 W/m -10,2 C -9,2 C 1,2 km/h (1 Bft)
17.01.2017 05:00 22,0 C -8,9 C 59 % 93 % 1032,1 hPa 0,0 l/m 0,0 km/h (0 Bft) N 0,00 h 0,0 UV-I 0 W/m -9,8 C -8,9 C 0,1 km/h (0 Bft)
17.01.2017 06:00 21,9 C -8,7 C 59 % 93 % 1032,6 hPa 0,0 l/m 0,2 km/h (0 Bft) N-NO 0,00 h 0,0 UV-I 0 W/m -9,7 C -8,7 C 0,7 km/h (0 Bft)
17.01.2017 07:00 22,0 C -8,5 C 60 % 93 % 1033,2 hPa 0,0 l/m 0,1 km/h (0 Bft) N-NO 0,00 h 0,0 UV-I 0 W/m -9,5 C -8,5 C 0,5 km/h (0 Bft)
17.01.2017 08:00 22,6 C -8,9 C 60 % 92 % 1033,9 hPa 0,0 l/m 0,1 km/h (0 Bft) N-NO 0,00 h 0,0 UV-I 31 W/m -9,9 C -8,9 C 0,5 km/h (0 Bft)
17.01.2017 09:00 23,1 C -7,6 C 59 % 93 % 1034,6 hPa 0,0 l/m 0,3 km/h (0 Bft) N-NO 0,00 h 0,0 UV-I 42 W/m -8,5 C -7,6 C 1,0 km/h (0 Bft)
17.01.2017 10:00 23,3 C -5,3 C 58 % 91 % 1035,0 hPa 0,0 l/m 0,9 km/h (0 Bft) N-NO 0,20 h 0,5 UV-I 138 W/m -6,6 C -5,3 C 2,4 km/h (1 Bft)
17.01.2017 11:00 23,4 C -3,2 C 58 % 84 % 1035,0 hPa 0,0 l/m 1,4 km/h (1 Bft) N-NW 0,70 h 0,7 UV-I 266 W/m -5,4 C -3,2 C 2,7 km/h (1 Bft)
17.01.2017 12:00 24,0 C -3,0 C 58 % 83 % 1034,9 hPa 0,0 l/m 0,1 km/h (0 Bft) N 0,37 h 0,7 UV-I 167 W/m -5,5 C -3,0 C 0,2 km/h (0 Bft)
17.01.2017 13:00 24,2 C -1,9 C 57 % 82 % 1034,8 hPa 0,0 l/m 2,3 km/h (1 Bft) N-NO 0,48 h 0,6 UV-I 173 W/m -4,6 C -2,0 C 4,6 km/h (1 Bft)
17.01.2017 14:00 24,1 C -2,5 C 56 % 85 % 1035,0 hPa 0,0 l/m 4,1 km/h (1 Bft) N-NO 0,00 h 0,6 UV-I 96 W/m -4,7 C -2,8 C 7,2 km/h (2 Bft)
17.01.2017 15:00 24,1 C -2,9 C 56 % 86 % 1035,4 hPa 0,0 l/m 3,1 km/h (1 Bft) N-NO 0,00 h 0,0 UV-I 47 W/m -4,9 C -3,0 C 6,3 km/h (2 Bft)
17.01.2017 16:00 24,1 C -3,6 C 55 % 82 % 1035,7 hPa 0,0 l/m 3,7 km/h (1 Bft) O-NO 0,00 h 0,0 UV-I 15 W/m -6,2 C -3,7 C 8,4 km/h (2 Bft)
17.01.2017 17:00 24,0 C -4,0 C 54 % 84 % 1036,1 hPa 0,0 l/m 2,9 km/h (1 Bft) O-NO 0,00 h 0,0 UV-I 0 W/m -6,3 C -4,1 C 6,7 km/h (2 Bft)
17.01.2017 18:00 24,1 C -4,9 C 55 % 85 % 1036,9 hPa 0,0 l/m 1,4 km/h (1 Bft) N-NO 0,00 h 0,0 UV-I 0 W/m -7,0 C -4,9 C 2,9 km/h (1 Bft)
17.01.2017 19:00 23,9 C -5,1 C 56 % 88 % 1037,2 hPa 0,0 l/m 0,4 km/h (0 Bft) N 0,00 h 0,0 UV-I 0 W/m -6,7 C -5,1 C 1,6 km/h (1 Bft)
17.01.2017 20:00 23,8 C -5,3 C 57 % 88 % 1037,7 hPa 0,0 l/m 1,5 km/h (1 Bft) N-NO 0,00 h 0,0 UV-I 0 W/m -6,9 C -5,3 C 3,9 km/h (1 Bft)
17.01.2017 21:00 24,0 C -4,6 C 57 % 88 % 1037,8 hPa 0,0 l/m 4,2 km/h (1 Bft) N-NO 0,00 h 0,0 UV-I 0 W/m -6,3 C -5,0 C 8,2 km/h (2 Bft)
17.01.2017 22:00 24,0 C -4,3 C 57 % 86 % 1037,9 hPa 0,0 l/m 4,3 km/h (1 Bft) O-NO 0,00 h 0,0 UV-I 0 W/m -6,3 C -5,0 C 9,6 km/h (2 Bft)
17.01.2017 23:00 24,0 C -4,2 C 57 % 85 % 1038,3 hPa 0,0 l/m 4,8 km/h (1 Bft) O-NO 0,00 h 0,0 UV-I 0 W/m -6,4 C -5,0 C 10,3 km/h (2 Bft)
18.01.2017 00:00 23,5 C -4,3 C 57 % 84 % 1038,3 hPa 0,0 l/m 6,1 km/h (2 Bft) O-NO 0,00 h 0,0 UV-I 0 W/m -6,7 C -5,7 C 12,1 km/h (2 Bft)
18.01.2017 01:00 23,2 C -4,6 C 58 % 83 % 1038,4 hPa 0,0 l/m 6,5 km/h (2 Bft) O-NO 0,00 h 0,0 UV-I 0 W/m -7,0 C -6,0 C 12,7 km/h (3 Bft)
18.01.2017 02:00 22,9 C -4,8 C 58 % 83 % 1038,5 hPa 0,0 l/m 4,4 km/h (1 Bft) O-NO 0,00 h 0,0 UV-I 0 W/m -7,2 C -5,2 C 9,0 km/h (2 Bft)
18.01.2017 03:00 22,8 C -5,0 C 58 % 83 % 1038,4 hPa 0,0 l/m 3,7 km/h (1 Bft) O-NO 0,00 h 0,0 UV-I 0 W/m -7,4 C -5,1 C 8,3 km/h (2 Bft)
18.01.2017 04:00 22,7 C -5,1 C 58 % 82 % 1038,3 hPa 0,0 l/m 4,1 km/h (1 Bft) NO 0,00 h 0,0 UV-I 0 W/m -7,6 C -5,3 C 8,4 km/h (2 Bft)
18.01.2017 05:00 22,6 C -5,3 C 58 % 82 % 1038,2 hPa 0,0 l/m 2,6 km/h (1 Bft) N-NO 0,00 h 0,0 UV-I 0 W/m -7,8 C -5,5 C 5,5 km/h (1 Bft)
18.01.2017 06:00 22,4 C -6,2 C 58 % 83 % 1038,2 hPa 0,0 l/m 4,5 km/h (1 Bft) N 0,00 h 0,0 UV-I 0 W/m -8,6 C -6,2 C 7,6 km/h (2 Bft)
18.01.2017 07:00 22,5 C -7,0 C 58 % 86 % 1038,6 hPa 0,0 l/m 4,4 km/h (1 Bft) N-NO 0,00 h 0,0 UV-I 0 W/m -9,0 C -7,1 C 6,8 km/h (2 Bft)
18.01.2017 08:00 22,5 C -6,5 C 59 % 87 % 1039,1 hPa 0,0 l/m 3,2 km/h (1 Bft) N 0,00 h 0,0 UV-I 9 W/m -8,3 C -6,5 C 5,7 km/h (1 Bft)
18.01.2017 12:00 23,2 C -4,4 C 59 % 78 % 1038,9 hPa 0,0 l/m 2,9 km/h (1 Bft) O-NO 1,10 h 0,8 UV-I 130 W/m -7,6 C -4,5 C 7,4 km/h (2 Bft)
18.01.2017 13:00 23,4 C -3,8 C 59 % 77 % 1038,7 hPa 0,0 l/m 4,8 km/h (1 Bft) O-NO 0,75 h 0,9 UV-I 235 W/m -7,3 C -4,5 C 9,7 km/h (2 Bft)
18.01.2017 14:00 23,4 C -3,0 C 57 % 75 % 1038,5 hPa 0,0 l/m 4,9 km/h (1 Bft) O-NO 0,62 h 0,6 UV-I 176 W/m -6,9 C -3,9 C 9,9 km/h (2 Bft)
18.01.2017 15:00 22,9 C -3,2 C 52 % 76 % 1038,5 hPa 0,0 l/m 5,3 km/h (1 Bft) O-NO 0,00 h 0,5 UV-I 84 W/m -6,9 C -3,8 C 10,7 km/h (2 Bft)
18.01.2017 16:00 22,7 C -4,5 C 53 % 79 % 1038,5 hPa 0,0 l/m 4,0 km/h (1 Bft) O-NO 0,00 h 0,0 UV-I 20 W/m -7,7 C -4,8 C 8,8 km/h (2 Bft)
18.01.2017 17:00 22,5 C -5,9 C 53 % 81 % 1038,6 hPa 0,0 l/m 1,7 km/h (1 Bft) N-NO 0,00 h 0,0 UV-I 0 W/m -8,6 C -5,9 C 5,0 km/h (1 Bft)
18.01.2017 18:00 22,7 C -6,9 C 55 % 83 % 1038,7 hPa 0,0 l/m 4,1 km/h (1 Bft) NO 0,00 h 0,0 UV-I 0 W/m -9,2 C -7,2 C 8,1 km/h (2 Bft)
18.01.2017 19:00 22,8 C -7,5 C 55 % 83 % 1038,7 hPa 0,0 l/m 8,7 km/h (2 Bft) O-NO 0,00 h 0,0 UV-I 0 W/m -9,8 C -10,4 C 13,8 km/h (3 Bft)
18.01.2017 20:00 23,1 C -7,7 C 55 % 85 % 1038,5 hPa 0,0 l/m 7,6 km/h (2 Bft) O-NO 0,00 h 0,0 UV-I 0 W/m -9,8 C -9,6 C 13,8 km/h (3 Bft)
18.01.2017 21:00 23,6 C -7,7 C 55 % 85 % 1038,4 hPa 0,0 l/m 4,3 km/h (1 Bft) O-NO 0,00 h 0,0 UV-I 0 W/m -9,8 C -7,8 C 9,1 km/h (2 Bft)
18.01.2017 22:00 23,6 C -8,2 C 55 % 86 % 1038,6 hPa 0,0 l/m 2,7 km/h (1 Bft) N-NO 0,00 h 0,0 UV-I 0 W/m -10,1 C -8,2 C 5,9 km/h (2 Bft)
18.01.2017 23:00 23,5 C -8,7 C 55 % 87 % 1038,7 hPa 0,0 l/m 2,9 km/h (1 Bft) N 0,00 h 0,0 UV-I 0 W/m -10,5 C -8,8 C 5,1 km/h (1 Bft)
19.01.2017 00:00 23,1 C -9,7 C 56 % 87 % 1038,5 hPa 0,0 l/m 4,5 km/h (1 Bft) N 0,00 h 0,0 UV-I 0 W/m -11,5 C -9,8 C 6,5 km/h (2 Bft)
19.01.2017 01:00 22,8 C -9,8 C 56 % 89 % 1038,5 hPa 0,0 l/m 1,9 km/h (1 Bft) N-NO 0,00 h 0,0 UV-I 0 W/m -11,2 C -9,8 C 4,2 km/h (1 Bft)
19.01.2017 02:00 22,6 C -9,8 C 56 % 90 % 1038,4 hPa 0,0 l/m 1,5 km/h (1 Bft) N 0,00 h 0,0 UV-I 0 W/m -11,2 C -9,8 C 3,2 km/h (1 Bft)
19.01.2017 03:00 22,5 C -10,8 C 56 % 88 % 1038,6 hPa 0,0 l/m 2,5 km/h (1 Bft) N 0,00 h 0,0 UV-I 0 W/m -12,3 C -10,8 C 4,8 km/h (1 Bft)
19.01.2017 04:00 22,4 C -11,0 C 56 % 89 % 1038,8 hPa 0,0 l/m 0,0 km/h (0 Bft) N 0,00 h 0,0 UV-I 0 W/m -12,3 C -11,0 C 0,1 km/h (0 Bft)
19.01.2017 05:00 22,3 C -12,4 C 56 % 87 % 1038,6 hPa 0,0 l/m 0,2 km/h (0 Bft) NO 0,00 h 0,0 UV-I 0 W/m -14,0 C -12,4 C 1,1 km/h (0 Bft)
19.01.2017 06:00 22,2 C -12,2 C 56 % 90 % 1038,5 hPa 0,0 l/m 1,4 km/h (1 Bft) O-NO 0,00 h 0,0 UV-I 0 W/m -13,5 C -12,2 C 3,7 km/h (1 Bft)
19.01.2017 07:00 22,1 C -10,2 C 57 % 90 % 1038,6 hPa 0,0 l/m 5,0 km/h (1 Bft) O-NO 0,00 h 0,0 UV-I 0 W/m -11,5 C -10,4 C 9,5 km/h (2 Bft)
19.01.2017 08:00 22,3 C -9,0 C 58 % 88 % 1038,9 hPa 0,0 l/m 6,8 km/h (2 Bft) O-NO 0,00 h 0,0 UV-I 36 W/m -10,6 C -10,5 C 11,7 km/h (2 Bft)
19.01.2017 09:00 23,0 C -6,6 C 57 % 82 % 1039,0 hPa 0,0 l/m 8,5 km/h (2 Bft) O-NO 0,42 h 0,6 UV-I 139 W/m -9,1 C -9,2 C 13,7 km/h (3 Bft)
19.01.2017 10:00 23,3 C -4,5 C 55 % 75 % 1039,3 hPa 0,0 l/m 5,8 km/h (2 Bft) O-NO 1,00 h 0,8 UV-I 268 W/m -8,2 C -5,3 C 10,5 km/h (2 Bft)
19.01.2017 11:00 23,5 C -3,0 C 53 % 70 % 1039,2 hPa 0,0 l/m 4,8 km/h (1 Bft) O-NO 1,00 h 1,1 UV-I 335 W/m -7,6 C -3,4 C 9,3 km/h (2 Bft)
19.01.2017 12:00 23,3 C -2,2 C 47 % 65 % 1038,8 hPa 0,0 l/m 3,4 km/h (1 Bft) O-NO 1,00 h 1,1 UV-I 350 W/m -7,9 C -2,3 C 8,0 km/h (2 Bft)
19.01.2017 13:00 23,8 C -1,4 C 48 % 61 % 1038,2 hPa 0,0 l/m 2,7 km/h (1 Bft) O-NO 1,00 h 1,0 UV-I 316 W/m -7,9 C -1,5 C 6,7 km/h (2 Bft)
19.01.2017 14:00 23,9 C -1,1 C 49 % 60 % 1038,0 hPa 0,0 l/m 1,8 km/h (1 Bft) O-NO 0,65 h 0,7 UV-I 187 W/m -7,8 C -1,2 C 5,0 km/h (1 Bft)
19.01.2017 15:00 23,6 C -0,9 C 51 % 61 % 1038,0 hPa 0,0 l/m 1,6 km/h (1 Bft) O-NO 0,07 h 0,5 UV-I 93 W/m -7,3 C -0,9 C 4,1 km/h (1 Bft)
19.01.2017 16:00 23,7 C -2,4 C 51 % 65 % 1037,9 hPa 0,0 l/m 0,9 km/h (0 Bft) NO 0,00 h 0,0 UV-I 23 W/m -8,0 C -2,4 C 2,3 km/h (1 Bft)
19.01.2017 17:00 23,6 C -3,9 C 52 % 70 % 1037,8 hPa 0,0 l/m 0,5 km/h (0 Bft) N-NO 0,00 h 0,0 UV-I 0 W/m -8,4 C -3,9 C 1,7 km/h (1 Bft)
19.01.2017 18:00 23,6 C -5,3 C 52 % 75 % 1037,9 hPa 0,0 l/m 2,8 km/h (1 Bft) NO 0,00 h 0,0 UV-I 0 W/m -9,0 C -5,4 C 5,8 km/h (2 Bft)
19.01.2017 19:00 23,6 C -6,2 C 53 % 77 % 1038,2 hPa 0,0 l/m 1,5 km/h (1 Bft) N-NO 0,00 h 0,0 UV-I 0 W/m -9,5 C -6,2 C 3,2 km/h (1 Bft)
19.01.2017 20:00 23,5 C -6,8 C 53 % 79 % 1038,1 hPa 0,0 l/m 1,1 km/h (1 Bft) NO 0,00 h 0,0 UV-I 0 W/m -9,8 C -6,8 C 3,1 km/h (1 Bft)
19.01.2017 21:00 23,8 C -7,0 C 54 % 79 % 1038,5 hPa 0,0 l/m 1,9 km/h (1 Bft) N-NO 0,00 h 0,0 UV-I 0 W/m -10,0 C -7,0 C 4,3 km/h (1 Bft)
19.01.2017 22:00 23,9 C -7,2 C 54 % 79 % 1038,6 hPa 0,0 l/m 0,3 km/h (0 Bft) N 0,00 h 0,0 UV-I 0 W/m -10,3 C -7,2 C 1,4 km/h (1 Bft)
19.01.2017 23:00 23,6 C -7,5 C 54 % 76 % 1038,4 hPa 0,0 l/m 1,6 km/h (1 Bft) NO 0,00 h 0,0 UV-I 0 W/m -10,9 C -7,5 C 3,8 km/h (1 Bft)
20.01.2017 00:00 23,1 C -6,6 C 54 % 68 % 1038,0 hPa 0,0 l/m 1,4 km/h (1 Bft) O 0,00 h 0,0 UV-I 0 W/m -11,5 C -6,7 C 4,3 km/h (1 Bft)
20.01.2017 01:00 22,9 C -6,0 C 55 % 60 % 1037,5 hPa 0,0 l/m 3,8 km/h (1 Bft) O-NO 0,00 h 0,0 UV-I 0 W/m -12,4 C -6,2 C 8,1 km/h (2 Bft)
20.01.2017 02:00 22,7 C -6,2 C 55 % 59 % 1037,3 hPa 0,0 l/m 4,8 km/h (1 Bft) O 0,00 h 0,0 UV-I 0 W/m -12,9 C -6,6 C 9,2 km/h (2 Bft)
20.01.2017 03:00 22,6 C -6,1 C 55 % 57 % 1037,2 hPa 0,0 l/m 5,3 km/h (1 Bft) O 0,00 h 0,0 UV-I 0 W/m -13,2 C -6,5 C 9,2 km/h (2 Bft)
20.01.2017 04:00 22,5 C -9,2 C 55 % 70 % 1037,2 hPa 0,0 l/m 0,0 km/h (0 Bft) N 0,00 h 0,0 UV-I 0 W/m -13,7 C -9,2 C 0,1 km/h (0 Bft)
20.01.2017 05:00 22,4 C -11,5 C 55 % 77 % 1037,2 hPa 0,0 l/m 0,1 km/h (0 Bft) O-NO 0,00 h 0,0 UV-I 0 W/m -14,7 C -11,5 C 0,3 km/h (0 Bft)
20.01.2017 06:00 22,3 C -12,4 C 55 % 81 % 1037,1 hPa 0,0 l/m 0,4 km/h (0 Bft) NO 0,00 h 0,0 UV-I 0 W/m -15,0 C -12,4 C 1,0 km/h (0 Bft)
20.01.2017 07:00 22,5 C -13,0 C 56 % 83 % 1037,2 hPa 0,0 l/m 0,3 km/h (0 Bft) NO 0,00 h 0,0 UV-I 5 W/m -15,2 C -13,0 C 0,6 km/h (0 Bft)
20.01.2017 08:00 22,7 C -12,6 C 56 % 86 % 1037,6 hPa 0,0 l/m 0,2 km/h (0 Bft) N-NW 0,00 h 0,0 UV-I 40 W/m -14,5 C -12,6 C 0,5 km/h (0 Bft)
20.01.2017 09:00 22,8 C -9,5 C 56 % 80 % 1037,6 hPa 0,0 l/m 0,0 km/h (0 Bft) N 0,48 h 0,5 UV-I 151 W/m -12,3 C -9,5 C 0,0 km/h (0 Bft)
20.01.2017 10:00 22,8 C -4,9 C 57 % 69 % 1037,5 hPa 0,0 l/m 0,0 km/h (0 Bft) N 1,00 h 0,8 UV-I 273 W/m -9,7 C -4,9 C 0,0 km/h (0 Bft)
20.01.2017 11:00 22,9 C -0,8 C 55 % 50 % 1037,3 hPa 0,0 l/m 0,1 km/h (0 Bft) O-NO 1,00 h 1,1 UV-I 349 W/m -10,2 C -0,8 C 0,4 km/h (0 Bft)
20.01.2017 12:00 23,1 C 0,5 C 52 % 38 % 1036,8 hPa 0,0 l/m 0,2 km/h (0 Bft) SO 1,00 h 1,2 UV-I 349 W/m -12,1 C 0,5 C 0,8 km/h (0 Bft)
20.01.2017 13:00 23,0 C 1,8 C 49 % 39 % 1036,2 hPa 0,0 l/m 1,2 km/h (1 Bft) O-NO 1,00 h 1,0 UV-I 312 W/m -10,9 C 1,7 C 2,7 km/h (1 Bft)
20.01.2017 14:00 22,8 C 1,8 C 44 % 37 % 1035,7 hPa 0,0 l/m 0,6 km/h (0 Bft) NO 0,75 h 0,7 UV-I 186 W/m -11,3 C 1,8 C 2,0 km/h (1 Bft)
20.01.2017 15:00 22,3 C 1,7 C 37 % 38 % 1035,2 hPa 0,0 l/m 1,3 km/h (1 Bft) O-NO 0,10 h 0,5 UV-I 94 W/m -11,0 C 1,7 C 4,2 km/h (1 Bft)
20.01.2017 16:00 22,7 C -0,3 C 39 % 47 % 1035,1 hPa 0,0 l/m 0,0 km/h (0 Bft) N 0,00 h 0,0 UV-I 22 W/m -10,2 C -0,3 C 0,0 km/h (0 Bft)
20.01.2017 17:00 22,7 C -1,9 C 40 % 55 % 1035,3 hPa 0,0 l/m 0,0 km/h (0 Bft) N 0,00 h 0,0 UV-I 0 W/m -9,7 C -1,9 C 0,0 km/h (0 Bft)
20.01.2017 18:00 22,8 C -3,1 C 43 % 58 % 1035,3 hPa 0,0 l/m 0,0 km/h (0 Bft) N 0,00 h 0,0 UV-I 0 W/m -10,1 C -3,1 C 0,0 km/h (0 Bft)
20.01.2017 19:00 23,0 C -4,3 C 44 % 62 % 1035,3 hPa 0,0 l/m 0,0 km/h (0 Bft) N 0,00 h 0,0 UV-I 0 W/m -10,3 C -4,3 C 0,0 km/h (0 Bft)
20.01.2017 20:00 23,0 C -5,0 C 45 % 65 % 1035,3 hPa 0,0 l/m 0,2 km/h (0 Bft) NO 0,00 h 0,0 UV-I 0 W/m -10,6 C -5,0 C 0,6 km/h (0 Bft)
20.01.2017 21:00 23,1 C -5,6 C 46 % 66 % 1035,2 hPa 0,0 l/m 1,0 km/h (0 Bft) N-NO 0,00 h 0,0 UV-I 0 W/m -10,8 C -5,6 C 3,1 km/h (1 Bft)
20.01.2017 22:00 23,1 C -4,8 C 47 % 58 % 1034,8 hPa 0,0 l/m 0,7 km/h (0 Bft) N-NO 0,00 h 0,0 UV-I 0 W/m -11,7 C -4,8 C 2,8 km/h (1 Bft)
20.01.2017 23:00 23,2 C -6,0 C 47 % 67 % 1034,7 hPa 0,0 l/m 0,0 km/h (0 Bft) N 0,00 h 0,0 UV-I 0 W/m -11,1 C -6,0 C 0,2 km/h (0 Bft)
21.01.2017 00:00 22,7 C -7,5 C 48 % 74 % 1034,5 hPa 0,0 l/m 0,9 km/h (0 Bft) NW 0,00 h 0,0 UV-I 0 W/m -11,3 C -7,5 C 1,8 km/h (1 Bft)
21.01.2017 01:00 22,4 C -8,4 C 48 % 79 % 1034,2 hPa 0,0 l/m 0,7 km/h (0 Bft) NW 0,00 h 0,0 UV-I 0 W/m -11,4 C -8,4 C 1,5 km/h (1 Bft)
21.01.2017 02:00 22,3 C -9,3 C 49 % 80 % 1034,2 hPa 0,0 l/m 0,4 km/h (0 Bft) NO 0,00 h 0,0 UV-I 0 W/m -12,0 C -9,3 C 1,6 km/h (1 Bft)
21.01.2017 03:00 22,2 C -10,1 C 49 % 82 % 1034,1 hPa 0,0 l/m 0,2 km/h (0 Bft) NO 0,00 h 0,0 UV-I 0 W/m -12,5 C -10,1 C 0,5 km/h (0 Bft)
21.01.2017 04:00 22,1 C -10,6 C 49 % 85 % 1033,7 hPa 0,0 l/m 1,5 km/h (1 Bft) N-NW 0,00 h 0,0 UV-I 0 W/m -12,6 C -10,6 C 2,7 km/h (1 Bft)
21.01.2017 05:00 21,9 C -10,3 C 49 % 86 % 1033,4 hPa 0,0 l/m 0,1 km/h (0 Bft) N-NO 0,00 h 0,0 UV-I 0 W/m -12,2 C -10,3 C 0,6 km/h (0 Bft)
21.01.2017 06:00 21,9 C -10,5 C 50 % 86 % 1033,4 hPa 0,0 l/m 0,8 km/h (0 Bft) NW 0,00 h 0,0 UV-I 0 W/m -12,3 C -10,5 C 2,1 km/h (1 Bft)
21.01.2017 07:00 21,8 C -10,3 C 50 % 86 % 1033,5 hPa 0,0 l/m 0,3 km/h (0 Bft) NW 0,00 h 0,0 UV-I 3 W/m -12,2 C -10,3 C 0,9 km/h (0 Bft)
21.01.2017 08:00 21,9 C -9,8 C 51 % 86 % 1033,7 hPa 0,0 l/m 0,7 km/h (0 Bft) O-NO 0,00 h 0,0 UV-I 34 W/m -11,7 C -9,8 C 2,4 km/h (1 Bft)
21.01.2017 09:00 22,4 C -6,5 C 51 % 78 % 1033,8 hPa 0,0 l/m 0,0 km/h (0 Bft) N 0,48 h 0,5 UV-I 147 W/m -9,6 C -6,5 C 0,0 km/h (0 Bft)
21.01.2017 10:00 23,2 C -0,3 C 50 % 58 % 1033,6 hPa 0,0 l/m 3,7 km/h (1 Bft) O-NO 1,00 h 0,8 UV-I 275 W/m -7,6 C -0,6 C 7,4 km/h (2 Bft)
21.01.2017 11:00 23,5 C 1,1 C 49 % 52 % 1033,1 hPa 0,0 l/m 6,6 km/h (2 Bft) O-NO 1,00 h 1,1 UV-I 338 W/m -7,7 C 0,3 C 11,6 km/h (2 Bft)
21.01.2017 12:00 23,6 C 2,1 C 51 % 47 % 1032,6 hPa 0,0 l/m 2,8 km/h (1 Bft) O-NO 1,00 h 1,2 UV-I 354 W/m -7,9 C 1,9 C 6,0 km/h (2 Bft)
21.01.2017 13:00 23,3 C 2,7 C 50 % 44 % 1032,1 hPa 0,0 l/m 3,5 km/h (1 Bft) O-NO 1,00 h 1,0 UV-I 322 W/m -8,3 C 2,5 C 7,1 km/h (2 Bft)
21.01.2017 14:00 23,1 C 3,0 C 50 % 43 % 1031,7 hPa 0,0 l/m 3,2 km/h (1 Bft) O-NO 0,80 h 0,7 UV-I 193 W/m -8,2 C 2,9 C 7,6 km/h (2 Bft)
21.01.2017 15:00 23,2 C 2,4 C 49 % 45 % 1031,5 hPa 0,0 l/m 4,1 km/h (1 Bft) O-NO 0,12 h 0,5 UV-I 99 W/m -8,3 C 2,2 C 8,7 km/h (2 Bft)
21.01.2017 16:00 23,2 C 0,7 C 49 % 50 % 1031,3 hPa 0,0 l/m 2,3 km/h (1 Bft) O-NO 0,00 h 0,0 UV-I 25 W/m -8,6 C 0,7 C 5,0 km/h (1 Bft)
21.01.2017 17:00 23,2 C -1,1 C 50 % 58 % 1031,3 hPa 0,0 l/m 2,4 km/h (1 Bft) O-NO 0,00 h 0,0 UV-I 0 W/m -8,4 C -1,2 C 4,8 km/h (1 Bft)
21.01.2017 18:00 23,3 C -1,9 C 52 % 62 % 1031,5 hPa 0,0 l/m 3,0 km/h (1 Bft) O-NO 0,00 h 0,0 UV-I 0 W/m -8,1 C -2,0 C 7,1 km/h (2 Bft)
21.01.2017 19:00 23,4 C -2,5 C 53 % 64 % 1031,6 hPa 0,0 l/m 1,2 km/h (1 Bft) O-NO 0,00 h 0,0 UV-I 0 W/m -8,3 C -2,5 C 3,6 km/h (1 Bft)
21.01.2017 20:00 23,6 C -3,2 C 53 % 66 % 1031,7 hPa 0,0 l/m 0,3 km/h (0 Bft) NO 0,00 h 0,0 UV-I 0 W/m -8,5 C -3,2 C 1,4 km/h (1 Bft)
21.01.2017 21:00 24,1 C -3,8 C 52 % 70 % 1031,8 hPa 0,0 l/m 1,1 km/h (1 Bft) O-NO 0,00 h 0,0 UV-I 0 W/m -8,5 C -3,8 C 3,2 km/h (1 Bft)
21.01.2017 22:00 24,2 C -4,1 C 52 % 73 % 1031,7 hPa 0,0 l/m 2,0 km/h (1 Bft) N-NO 0,00 h 0,0 UV-I 0 W/m -8,2 C -4,1 C 4,9 km/h (1 Bft)
21.01.2017 23:00 23,9 C -4,5 C 52 % 76 % 1031,6 hPa 0,0 l/m 1,6 km/h (1 Bft) N 0,00 h 0,0 UV-I 0 W/m -8,1 C -4,5 C 4,1 km/h (1 Bft)
22.01.2017 00:00 23,6 C -4,8 C 54 % 77 % 1031,2 hPa 0,0 l/m 2,6 km/h (1 Bft) N 0,00 h 0,0 UV-I 0 W/m -8,2 C -4,8 C 5,2 km/h (1 Bft)
22.01.2017 01:00 23,5 C -4,9 C 54 % 78 % 1030,7 hPa 0,0 l/m 2,6 km/h (1 Bft) O-NO 0,00 h 0,0 UV-I 0 W/m -8,2 C -4,9 C 5,5 km/h (1 Bft)
22.01.2017 02:00 23,6 C -6,0 C 53 % 74 % 1030,7 hPa 0,0 l/m 0,6 km/h (0 Bft) O 0,00 h 0,0 UV-I 0 W/m -9,8 C -6,0 C 1,9 km/h (1 Bft)
22.01.2017 03:00 23,6 C -8,2 C 53 % 79 % 1030,3 hPa 0,0 l/m 0,7 km/h (0 Bft) O 0,00 h 0,0 UV-I 0 W/m -11,2 C -8,2 C 1,8 km/h (1 Bft)
22.01.2017 04:00 23,4 C -9,2 C 53 % 84 % 1030,0 hPa 0,0 l/m 1,3 km/h (1 Bft) O-NO 0,00 h 0,0 UV-I 0 W/m -11,4 C -9,2 C 3,2 km/h (1 Bft)
22.01.2017 05:00 23,3 C -9,7 C 53 % 86 % 1029,9 hPa 0,0 l/m 1,0 km/h (0 Bft) O-NO 0,00 h 0,0 UV-I 0 W/m -11,6 C -9,7 C 2,6 km/h (1 Bft)
22.01.2017 06:00 22,9 C -9,3 C 53 % 89 % 1029,7 hPa 0,0 l/m 2,0 km/h (1 Bft) O-NO 0,00 h 0,0 UV-I 0 W/m -10,8 C -9,3 C 4,1 km/h (1 Bft)
22.01.2017 07:00 22,7 C -6,7 C 53 % 87 % 1029,5 hPa 0,0 l/m 5,5 km/h (1 Bft) O-NO 0,00 h 0,0 UV-I 5 W/m -8,4 C -7,2 C 10,6 km/h (2 Bft)
22.01.2017 08:00 22,6 C -5,3 C 54 % 81 % 1029,2 hPa 0,0 l/m 5,6 km/h (1 Bft) O-NO 0,00 h 0,0 UV-I 35 W/m -8,1 C -6,5 C 10,7 km/h (2 Bft)
22.01.2017 09:00 22,9 C -3,2 C 54 % 72 % 1029,2 hPa 0,0 l/m 4,5 km/h (1 Bft) O 0,45 h 0,5 UV-I 145 W/m -7,6 C -3,6 C 9,9 km/h (2 Bft)
22.01.2017 10:00 23,2 C -2,1 C 55 % 66 % 1029,1 hPa 0,0 l/m 1,9 km/h (1 Bft) O 1,00 h 0,8 UV-I 266 W/m -7,5 C -2,2 C 5,3 km/h (1 Bft)
22.01.2017 11:00 23,1 C -1,4 C 53 % 63 % 1028,6 hPa 0,0 l/m 6,3 km/h (2 Bft) O 1,00 h 1,1 UV-I 331 W/m -7,5 C -2,6 C 14,0 km/h (3 Bft)
22.01.2017 12:00 22,8 C -0,7 C 50 % 63 % 1027,9 hPa 0,0 l/m 3,0 km/h (1 Bft) O-NO 1,00 h 1,2 UV-I 346 W/m -6,9 C -0,8 C 6,7 km/h (2 Bft)
22.01.2017 13:00 22,7 C -0,3 C 49 % 62 % 1027,3 hPa 0,0 l/m 2,7 km/h (1 Bft) O-NO 1,00 h 1,0 UV-I 312 W/m -6,6 C -0,4 C 7,2 km/h (2 Bft)
22.01.2017 14:00 22,6 C -0,2 C 48 % 62 % 1026,9 hPa 0,0 l/m 2,6 km/h (1 Bft) O-NO 0,83 h 0,7 UV-I 192 W/m -6,5 C -0,3 C 6,3 km/h (2 Bft)
22.01.2017 15:00 22,8 C -0,4 C 47 % 64 % 1026,7 hPa 0,0 l/m 3,8 km/h (1 Bft) O-NO 0,05 h 0,5 UV-I 99 W/m -6,4 C -0,6 C 8,5 km/h (2 Bft)
22.01.2017 16:00 22,8 C -1,7 C 48 % 67 % 1026,4 hPa 0,0 l/m 5,1 km/h (1 Bft) O-NO 0,00 h 0,0 UV-I 23 W/m -7,1 C -2,5 C 10,8 km/h (2 Bft)
22.01.2017 17:00 23,1 C -2,7 C 49 % 68 % 1026,5 hPa 0,0 l/m 2,9 km/h (1 Bft) O-NO 0,00 h 0,0 UV-I 0 W/m -7,8 C -2,8 C 6,6 km/h (2 Bft)
22.01.2017 18:00 23,4 C -3,6 C 50 % 71 % 1026,6 hPa 0,0 l/m 3,7 km/h (1 Bft) O-NO 0,00 h 0,0 UV-I 0 W/m -8,0 C -3,7 C 7,5 km/h (2 Bft)
22.01.2017 19:00 23,3 C -4,4 C 51 % 74 % 1026,7 hPa 0,0 l/m 6,0 km/h (2 Bft) O-NO 0,00 h 0,0 UV-I 0 W/m -8,2 C -5,2 C 11,0 km/h (2 Bft)
22.01.2017 20:00 23,4 C -4,8 C 50 % 76 % 1026,4 hPa 0,0 l/m 6,6 km/h (2 Bft) O-NO 0,00 h 0,0 UV-I 0 W/m -8,4 C -5,9 C 12,2 km/h (2 Bft)
22.01.2017 21:00 23,7 C -4,8 C 50 % 77 % 1026,4 hPa 0,0 l/m 6,9 km/h (2 Bft) O-NO 0,00 h 0,0 UV-I 0 W/m -8,2 C -6,4 C 10,3 km/h (2 Bft)
22.01.2017 22:00 23,6 C -4,8 C 51 % 78 % 1026,3 hPa 0,0 l/m 4,0 km/h (1 Bft) O-NO 0,00 h 0,0 UV-I 0 W/m -8,1 C -5,0 C 8,6 km/h (2 Bft)
22.01.2017 23:00 23,3 C -6,8 C 51 % 76 % 1026,6 hPa 0,0 l/m 0,3 km/h (0 Bft) O-NO 0,00 h 0,0 UV-I 0 W/m -10,2 C -6,8 C 1,0 km/h (0 Bft)
Min-Datum _ 20.01.17 20.01.17 20.01.17 20.01.17 16.01.17 - 16.01.17 - - - - 20.01.17 19.01.17 16.01.17
_ Min-Zeit 15:33 07:42 15:25 14:03 01:14 - 00:00 - - - - 07:42 07:58 00:00
Minimum _ 21,7 C -13,2 C 28 % 32 % 1020,4 hPa - 0,0 km/h (0 Bft) - - - - -15,5 C -15,6 C 0,0 km/h (0 Bft)
Max-Datum _ 17.01.17 21.01.17 16.01.17 16.01.17 19.01.17 16.01.17 16.01.17 - 18.01.17 20.01.17 17.01.17 16.01.17 21.01.17 17.01.17
_ Max-Zeit 13:00 13:47 08:01 01:27 10:41 00:39 18:13 - 12:39 11:57 11:47 14:15 13:47 22:44
Maximum _ 24,3 C 3,2 C 62 % 95 % 1039,5 hPa 0,2 l/m 17,7 km/h
N (3 Bft)
- 1,00 h 1,3 UV-I 510 W/m -3,1 C 3,2 C 29,0 km/h
O-NO (5 Bft)
Durchschnitt _ 23,0 C -5,2 C 54 % 77 % 1033,2 hPa #0,8 l/m 2,5 km/h (1 Bft) O-NO #25:25 h 0,8 UV-I 145 W/m -8,8 C -5,4 C 5,1 km/h (1 Bft)